Location: Amsterdam
(30.7274°N, 84.4357°W)
Time: 15:26:05
(UTC+00:00)

Tiros 1 despin weight - Visible Passes

Search period start: 10 February 2026 00:00
Search period end: 20 February 2026 00:00
Orbit: 557 x 594 km, 48.2° (Epoch: 8 February)

Date Brightness Start Highest point End Pass type
(mag) Time Alt. Az. Time Alt. Az. Time Alt. Az.
10 Feb ? 00:53:30 10° NW 00:55:25 13° NNW 00:57:17 10° N visible
18 Feb ? 01:17:07 10° N 01:17:33 11° N 01:17:33 11° N visible
19 Feb ? 01:19:02 10° NNW 01:20:07 14° N 01:20:07 14° N visible
